STARLINK-3054, 49167

Orbit data source: Space-Track

STARLINK-3054, 49167 is a payload satellite owned by SpaceX/Seattle (US) in LEO that was launched on Tue, 14 Sep 2021 UTC via an FALCON 9 launch vehicle from the Air Force Western Test Range (AFWTR). Payload-class satellites include a variety of spacecraft equipped with specific instruments for various scientific and technological missions. These include communications satellites like Starlink; space stations such as the ISS; scientific satellites like the Hubble; Earth observation satellites from companies like Planet Labs, Umbra, and HawkEye 360; GPS; miniature CubeSats for education and research; and military/defense satellites.

Loading next visibility...
Identifier
49167, 2021-082AP
Orbit
LEO
Country
Flag of USUS
Related business
Manufacturer
SpaceX/Seattle
Mission
Operational Commercial Communications
Bus & Motor
STARLINK, Unknown motor
Mass
297 kg wet, ~275 kg dry
Launch date (UTC)
2021-09-14 (4 years ago)
Launch vehicle
FALCON 9
Launch site
Air Force Western Test Range (AFWTR)
Object type
Payload
Rocket body
Debris
Shape & HBR
Box + 1 Pan, 10.1 m
Radar Cross Section
13.562 m², Large (>1 m²)

Expand to show TLE details & history
Last TLE update: 12 hours ago

TLE from 12 hours ago
0 STARLINK-3054
1 49167U 21082AP  26071.73485869 -.00004689  00000-0 -38553-3 0  9992
2 49167  69.9990 286.7702 0002636 256.8102 103.2764 14.98324332247638
Epoch: 2026-03-12T17:38Z
TLE epoch observation values (Epoch: 2026-03-12T17:38:11.790Z)
Latitude
0.00005°
Longitude
-148.15939°
Altitude
574.918 km
Speed
7.573 km/s
True Right ascension
19h 07m 04s
True Declination
0° 00' 00"
Sunlit
Object was in daylight at epoch
Visualization orbit readout
Latitude
Unknown
Longitude
Unknown
Altitude
Unknown
Speed
Unknown
Apparent Right ascension
Unknown
Apparent Declination
Unknown
Sunlit
N/A
Visualization observer readout
Local Sidereal Time
10:06:28
Azimuth
Unknown
Elevation
Unknown
Doppler factor
Unknown
Orbital elements
Apogee altitude
571.853 km
Perigee altitude
568.19 km
Semi-major axis
6,948.159 km
Eccentricity
0.00026
Inclination
69.999°
RAAN
286.7702°
Arg. of periapsis
256.8102°
True anomaly
103.3058°
Mean anomaly
103.2764°
Eccentric anomaly
103.2911°
Mean motion
3.74747 °/min
Orbital period
96.06 mins
BSTAR
-0.00038553
Loading maneuver chart data...
Computing Atmospheric mass density...

Documentation

Showing up to 5 results
|